Location: Beetenbrück
(52.8113°N, 9.5946°E)
Time: 21:32:46
(UTC+00:00)

Cosmos 2366 rocket - Pass Details

Date: 14 April 2026
Orbit: 954 x 996 km, 82.9° (Epoch: 12 May)

Event Time Altitude Azimuth Distance (km) Brightness Sun altitude
Rises 19:09:15 0° 165° (SSE) 3,640 6.6 -7.8°
Reaches altitude 10° 19:11:51 10° 160° (SSE) 2,693 5.9 -8.2°
Maximum altitude 19:17:37 45° 90° (E) 1,291 4.3 -8.9°
Drops below altitude 10° 19:23:25 10° 20° (NNE) 2,696 6.5 -9.7°
Sets 19:26:00 0° 14° (NNE) 3,645 7.2 -10.0°
